Drummond Island, MI

7:33 AM EST on February 06, 2016 (GMT -0500)
Drummond Island

Weather History for KDRM - September, 2013

Change the Weather History Date:

Monday, September 2, 2013

  Actual Average (KCIU) Record (KCIU)
Temperature  
Mean Temperature 57 °F -  
Max Temperature 61 °F 71 °F 84 °F (1990)
Min Temperature 53 °F 50 °F 35 °F (1992)
Degree Days  
Heating Degree Days 8    
Growing Degree Days 7 (Base 50)    
Moisture  
Dew Point 52 °F    
Average Humidity 85    
Maximum Humidity 93    
Minimum Humidity 76    
Precipitation  
Precipitation 0.00 in - - ()
Sea Level Pressure  
Sea Level Pressure 29.79 in    
Wind  
Wind Speed 10 mph (WNW)    
Max Wind Speed 15 mph    
Max Gust Speed 25 mph    
Visibility 9 miles    
Events Rain    
Averages and records for this station are not official NWS values.
T = Trace of Precipitation, MM = Missing Value Source: NWS Daily Summary

Daily Weather History Graph

Daily Weather History Graph

Search for Another Location

Airport or City:

Trip Planner

Search our weather history database for the weather conditions in past years. The results will help you decide how hot, cold, wet, or windy it might be!

Date:

Astronomy

Sep. 02, 2013 Rise Set
Actual Time 6:57 AM EDT 8:10 PM EDT
Civil Twilight 6:26 AM EDT 8:41 PM EDT
Nautical Twilight 5:49 AM EDT 9:18 PM EDT
Astronomical Twilight 5:09 AM EDT 9:57 PM EDT
Moon 4:07 AM EDT (9/2) 6:27 PM EDT (9/2)
Length of Visible Light 14h 15m
Length of Day
13h 13m
Waning Crescent, 8% of the Moon is Illuminated
Sep 2
Waning Crescent
Sep 5
New
Sep 12
First Quarter
Sep 19
Full
Sep 26
Last Quarter

Hourly Weather History & Observations

Time (EDT) Temp. Dew Point Humidity Pressure Visibility Wind Dir Wind Speed Gust Speed Precip Events Conditions
12:15 AM 61.9 °F 58.5 °F 89% 29.72 in 10.0 mi NW 10.4 mph - N/A   Overcast
12:35 AM 61.5 °F 58.5 °F 90% 29.72 in 10.0 mi NW 8.1 mph - N/A   Overcast
12:55 AM 60.8 °F 58.1 °F 91% 29.73 in 10.0 mi NW 8.1 mph - N/A   Overcast
1:14 AM 60.3 °F 56.7 °F 88% 29.73 in 10.0 mi NW 9.2 mph 17.3 mph N/A   Overcast
1:35 AM 59.4 °F 56.3 °F 90% 29.73 in 7.0 mi NW 9.2 mph - N/A   Overcast
1:55 AM 58.6 °F 56.3 °F 92% 29.73 in 5.0 mi NW 8.1 mph 16.1 mph N/A Rain Light Rain
2:15 AM 57.7 °F 54.9 °F 90% 29.74 in 10.0 mi NW 8.1 mph 18.4 mph N/A   Overcast
2:35 AM 57.2 °F 54.5 °F 91% 29.75 in 10.0 mi NW 11.5 mph 18.4 mph N/A   Overcast
2:55 AM 56.5 °F 53.6 °F 90% 29.75 in 10.0 mi NW 10.4 mph 17.3 mph N/A Rain Light Rain
3:15 AM 56.1 °F 53.1 °F 89% 29.75 in 10.0 mi WNW 11.5 mph 16.1 mph N/A   Overcast
3:35 AM 55.9 °F 52.5 °F 88% 29.75 in 10.0 mi WNW 12.7 mph 19.6 mph N/A   Overcast
3:54 AM 55.9 °F 51.8 °F 86% 29.75 in 10.0 mi WNW 5.8 mph 18.4 mph N/A   Overcast
4:15 AM 55.8 °F 51.3 °F 85% 29.75 in 10.0 mi WNW 10.4 mph 16.1 mph N/A   Overcast
4:35 AM 55.4 °F 50.5 °F 84% 29.75 in 10.0 mi WNW 9.2 mph 19.6 mph N/A   Overcast
4:54 AM 55.4 °F 50.4 °F 83% 29.75 in 10.0 mi West 10.4 mph 19.6 mph N/A   Overcast
5:15 AM 54.1 °F 51.8 °F 92% 29.75 in 5.0 mi WNW 8.1 mph 17.3 mph N/A   Light Drizzle
5:35 AM 54.1 °F 51.1 °F 89% 29.75 in 7.0 mi West 10.4 mph 16.1 mph N/A Rain Rain
5:55 AM 53.8 °F 50.9 °F 90% 29.76 in 10.0 mi West 5.8 mph - N/A   Overcast
6:15 AM 53.8 °F 50.4 °F 88% 29.76 in 10.0 mi West 9.2 mph 17.3 mph N/A   Overcast
6:35 AM 53.8 °F 50.4 °F 88% 29.76 in 10.0 mi WSW 6.9 mph - N/A   Overcast
6:55 AM 53.8 °F 50.5 °F 89% 29.76 in 10.0 mi West 8.1 mph - N/A   Overcast
7:15 AM 53.6 °F 50.9 °F 91% 29.76 in 5.0 mi West 6.9 mph - N/A   Light Drizzle
7:35 AM 53.6 °F 50.9 °F 91% 29.76 in 7.0 mi West 8.1 mph - N/A Rain Light Rain
7:55 AM 54.3 °F 50.9 °F 88% 29.76 in 10.0 mi WNW 9.2 mph - N/A   Overcast
8:15 AM 54.5 °F 50.9 °F 88% 29.76 in 10.0 mi WNW 12.7 mph 20.7 mph N/A   Overcast
8:34 AM 54.7 °F 50.9 °F 87% 29.76 in 10.0 mi WNW 12.7 mph 21.9 mph N/A   Overcast
8:55 AM 55.0 °F 51.1 °F 86% 29.76 in 10.0 mi WNW 11.5 mph 23.0 mph N/A   Overcast
9:15 AM 55.4 °F 51.8 °F 88% 29.76 in 7.0 mi WNW 10.4 mph 20.7 mph N/A   Overcast
9:35 AM 55.8 °F 52.3 °F 88% 29.76 in 7.0 mi WNW 11.5 mph 17.3 mph N/A   Overcast
9:55 AM 55.4 °F 52.7 °F 91% 29.77 in 4.0 mi WNW 11.5 mph 18.4 mph N/A Rain Light Rain
10:15 AM 55.6 °F 52.7 °F 90% 29.77 in 5.0 mi WNW 12.7 mph 20.7 mph N/A   Overcast
10:35 AM 56.1 °F 52.9 °F 89% 29.78 in 4.0 mi WNW 9.2 mph 19.6 mph N/A Rain Light Rain
10:55 AM 55.6 °F 53.6 °F 93% 29.78 in 4.0 mi WNW 9.2 mph - N/A   Drizzle
11:15 AM 55.8 °F 53.6 °F 92% 29.78 in 4.0 mi WNW 10.4 mph - N/A   Light Drizzle
11:35 AM 56.3 °F 52.3 °F 87% 29.78 in 10.0 mi WNW 8.1 mph 21.9 mph N/A   Overcast
11:55 AM 56.8 °F 52.3 °F 85% 29.78 in 10.0 mi WNW 11.5 mph 17.3 mph N/A   Overcast
12:14 PM 57.9 °F 52.2 °F 81% 29.78 in 10.0 mi WNW 12.7 mph 21.9 mph N/A   Overcast
12:35 PM 57.7 °F 51.3 °F 79% 29.79 in 10.0 mi West 13.8 mph 20.7 mph N/A   Overcast
12:55 PM 59.2 °F 52.0 °F 77% 29.78 in 10.0 mi WNW 9.2 mph 19.6 mph N/A   Overcast
1:15 PM 58.5 °F 51.4 °F 77% 29.79 in 10.0 mi WNW 11.5 mph 23.0 mph N/A   Overcast
1:35 PM 57.6 °F 51.8 °F 81% 29.79 in 10.0 mi WNW 12.7 mph 24.2 mph N/A   Overcast
1:55 PM 56.8 °F 51.6 °F 83% 29.79 in 7.0 mi WNW 11.5 mph 21.9 mph N/A   Overcast
2:15 PM 57.9 °F 51.6 °F 80% 29.80 in 10.0 mi WNW 8.1 mph 19.6 mph N/A   Overcast
2:35 PM 58.8 °F 51.4 °F 76% 29.80 in 10.0 mi WNW 13.8 mph 23.0 mph N/A   Overcast
2:55 PM 58.1 °F 51.3 °F 78% 29.80 in 10.0 mi West 13.8 mph 25.3 mph N/A   Overcast
3:15 PM 57.9 °F 51.4 °F 79% 29.80 in 10.0 mi West 10.4 mph 20.7 mph N/A   Overcast
3:35 PM 57.7 °F 51.1 °F 78% 29.79 in 10.0 mi West 11.5 mph 20.7 mph N/A   Overcast
3:54 PM 57.6 °F 51.1 °F 79% 29.80 in 10.0 mi WNW 15.0 mph 25.3 mph N/A   Overcast
4:15 PM 57.2 °F 51.1 °F 80% 29.80 in 10.0 mi NW 9.2 mph 23.0 mph N/A   Overcast
4:35 PM 57.4 °F 50.5 °F 78% 29.80 in 10.0 mi NW 10.4 mph 20.7 mph N/A   Overcast
4:55 PM 57.6 °F 50.5 °F 77% 29.81 in 10.0 mi WNW 11.5 mph 21.9 mph N/A   Overcast
5:15 PM 57.4 °F 50.5 °F 78% 29.81 in 10.0 mi WNW 11.5 mph 21.9 mph N/A   Overcast
5:35 PM 56.8 °F 50.7 °F 80% 29.81 in 10.0 mi WNW 10.4 mph 20.7 mph N/A   Overcast
5:55 PM 56.7 °F 50.5 °F 80% 29.81 in 10.0 mi WNW 12.7 mph 21.9 mph N/A   Overcast
6:15 PM 56.7 °F 50.9 °F 81% 29.81 in 10.0 mi WNW 12.7 mph 23.0 mph N/A   Overcast
6:35 PM 56.7 °F 50.9 °F 81% 29.82 in 10.0 mi NW 10.4 mph 23.0 mph N/A   Overcast
6:55 PM 56.7 °F 51.1 °F 82% 29.82 in 10.0 mi WNW 11.5 mph 18.4 mph N/A   Overcast
7:15 PM 56.7 °F 51.1 °F 82% 29.82 in 10.0 mi NW 9.2 mph 18.4 mph N/A   Overcast
7:35 PM 56.7 °F 51.3 °F 82% 29.83 in 10.0 mi NW 8.1 mph 17.3 mph N/A   Overcast
7:55 PM 56.5 °F 51.8 °F 84% 29.83 in 7.0 mi NW 11.5 mph 17.3 mph N/A   Overcast
8:15 PM 56.3 °F 51.6 °F 84% 29.83 in 10.0 mi NW 11.5 mph 18.4 mph N/A   Overcast
8:35 PM 56.5 °F 51.4 °F 83% 29.83 in 10.0 mi NW 11.5 mph 18.4 mph N/A   Overcast
8:54 PM 56.3 °F 51.6 °F 84% 29.83 in 10.0 mi NW 9.2 mph 18.4 mph N/A   Overcast
9:15 PM 56.3 °F 51.4 °F 84% 29.84 in 10.0 mi WNW 8.1 mph 17.3 mph N/A   Overcast
9:35 PM 56.3 °F 51.8 °F 85% 29.84 in 10.0 mi NW 6.9 mph 17.3 mph N/A   Overcast
9:55 PM 56.5 °F 51.1 °F 82% 29.84 in 10.0 mi NNW 8.1 mph 16.1 mph N/A   Overcast
10:15 PM 56.3 °F 50.0 °F 79% 29.84 in 10.0 mi NNW 11.5 mph 19.6 mph N/A   Overcast
10:34 PM 55.9 °F 49.3 °F 78% 29.84 in 10.0 mi NNW 8.1 mph 16.1 mph N/A   Overcast
10:55 PM 55.8 °F 49.5 °F 79% 29.85 in 10.0 mi NNW 5.8 mph - N/A   Overcast
11:15 PM 55.8 °F 49.8 °F 80% 29.85 in 10.0 mi NNW 10.4 mph 18.4 mph N/A   Overcast
11:35 PM 55.8 °F 49.6 °F 80% 29.85 in 10.0 mi NNW 10.4 mph 17.3 mph N/A   Overcast
11:55 PM 55.8 °F 49.6 °F 80% 29.85 in 10.0 mi NW 9.2 mph 17.3 mph N/A   Overcast